[[{"header":{"parameterUnit":"m.s-1","parameterCategory":2,"la1":30.2991,"la2":30.254,"lo1":-89.0895,"lo2":-89.0444,"dy":0.0017,"dx":0.0017,"nx":28,"ny":28,"refTime":"2023-10-24T03:00:00:Z","depth":"0","parameterNumber":2,"parameterNumberName":"U-component_of_CURRENTS"},"data":[0,0,0,0,0,0,0,0,0,0,0,0,0,0,0,0,0,0,0,0,0,0,0,0,0,0,0,0,0,0,0,0,0,0,0,0,0,0,0,0,0,0,0,0,0,0,0,0,0,0,0,0,0,0,0,0,0,0,-0.2795,-0.2795,0,-0.2748,-0.2747,-0.2746,-0.2713,-0.2713,-0.2714,-0.2715,-0.2589,-0.2585,-0.2581,0,0,0,0,0,0,0,0,0,0,0,0,0,-0.2642,-0.2646,-0.2795,-0.2795,-0.2796,-0.2749,-0.2747,-0.2745,-0.2713,-0.2714,-0.2714,-0.2715,-0.259,-0.2585,-0.2581,0,0,0,0,0,0,0,0,0,0,0,0,0,-0.2654,-0.2647,-0.2795,-0.2781,-0.278,-0.2749,-0.2747,-0.2745,-0.2713,-0.2714,-0.2715,-0.2715,-0.2592,-0.2586,-0.258,-0.2523,0,0,-0.2562,-0.2559,0,0,0,0,0,0,0,0,-0.2654,-0.2659,-0.2783,-0.2782,-0.2781,-0.2746,-0.2647,-0.267,-0.2712,-0.2728,-0.2715,-0.2716,-0.264,-0.263,-0.2606,-0.2517,-0.2512,-0.2561,-0.2558,-0.2555,-0.2553,0,0,0,0,0,0,0,-0.2653,-0.266,-0.2766,-0.2783,-0.2782,-0.2705,-0.2708,-0.265,-0.2669,-0.2726,-0.2726,-0.2737,-0.2638,-0.2612,-0.2603,-0.251,-0.2561,-0.2556,-0.2552,-0.255,-0.2457,-0.2458,0,0,0,0,0,0,-0.269,-0.266,-0.2768,-0.2766,-0.273,-0.2708,-0.2712,-0.2748,-0.2672,-0.2665,-0.2736,-0.2736,-0.2621,-0.261,-0.2598,-0.2583,-0.2555,-0.255,-0.2546,-0.2456,-0.2457,-0.2458,0,0,0,0,0,0,-0.2688,-0.2701,-0.277,-0.2717,-0.2722,-0.2713,-0.2752,-0.2747,-0.2737,-0.2682,-0.2671,-0.2735,-0.2622,-0.2606,-0.2574,-0.2576,-0.2547,-0.2541,-0.2455,-0.2456,-0.2458,-0.2516,0,0,0,0,0,0,-0.2684,-0.2701,-0.2713,-0.2722,-0.2727,-0.2786,-0.2752,-0.2746,-0.2746,-0.2745,-0.2677,-0.2666,-0.2621,-0.2584,-0.2568,-0.2567,-0.2537,-0.2453,-0.2455,-0.2457,-0.2513,-0.2519,-0.2525,0,0,0,0,0,-0.2679,-0.271,-0.2714,-0.2726,-0.2755,-0.2789,-0.2784,-0.277,-0.2746,-0.2758,-0.2709,-0.2668,-0.2586,-0.2579,-0.2561,-0.2558,-0.2452,-0.2455,-0.2457,-0.251,-0.2518,-0.2525,0,0,0,0,0,0,-0.2641,-0.271,-0.2715,-0.2763,-0.279,-0.2788,-0.2784,-0.2777,-0.2743,-0.2732,-0.267,-0.2656,-0.2639,-0.2591,-0.2585,-0.2543,-0.2517,-0.2516,-0.2563,-0.257,-0.2576,-0.2559,-0.2532,0,0,0,0,0,-0.2644,-0.2683,-0.2737,-0.2765,-0.2788,-0.2783,-0.2783,-0.2788,-0.2773,-0.2759,-0.2716,-0.2666,-0.263,-0.2597,-0.2568,-0.2521,-0.2463,-0.2514,-0.252,-0.2526,-0.2503,-0.2438,-0.2435,-0.2467,-0.2467,-0.2467,0,0,-0.2627,-0.2673,-0.2688,-0.2758,-0.2764,-0.2796,-0.2784,-0.2808,-0.2812,-0.2747,-0.2721,-0.2693,-0.2631,-0.2602,-0.2587,-0.2559,-0.2491,-0.2529,-0.2534,-0.2507,-0.244,-0.2436,-0.2433,-0.2468,-0.2468,-0.2468,0,0,-0.2618,-0.2669,-0.2697,-0.274,-0.2788,-0.2798,-0.2818,-0.2838,-0.2829,-0.2821,-0.2775,-0.2747,-0.269,-0.264,-0.2605,-0.2621,-0.2544,-0.2622,-0.2609,-0.2547,-0.2543,-0.2539,-0.2471,-0.246,-0.2603,-0.2603,-0.2603,0,-0.2589,-0.2641,-0.2703,-0.2751,-0.277,-0.2809,-0.2832,-0.2839,-0.284,-0.2809,-0.2833,-0.2735,-0.2704,-0.2623,-0.2644,-0.2631,-0.258,-0.2583,-0.2552,-0.2547,-0.2541,-0.2473,-0.246,-0.2606,-0.2606,-0.2606,-0.2605,0,-0.2616,-0.2648,-0.2672,-0.2744,-0.278,-0.2811,-0.2861,-0.2867,-0.2866,-0.2854,-0.2812,-0.2777,-0.2704,-0.2709,-0.2679,-0.2616,-0.2588,-0.2585,-0.2528,-0.2541,-0.2469,-0.2454,-0.2611,-0.261,-0.2609,-0.2608,0,0,-0.2564,-0.2663,-0.2669,-0.2673,-0.2778,-0.2797,-0.2829,-0.2833,-0.2805,-0.2825,-0.2766,-0.2742,-0.2715,-0.2675,-0.2636,-0.2587,-0.2529,-0.2568,-0.2563,-0.249,-0.2378,-0.2343,-0.2324,-0.2516,-0.2514,-0.2512,-0.2346,0,-0.2544,-0.2597,-0.2667,-0.2684,-0.2701,-0.2763,-0.2777,-0.2793,-0.2798,-0.2763,-0.2731,-0.2684,-0.2703,-0.2663,-0.2623,-0.2552,-0.2491,-0.2573,-0.2383,-0.2377,-0.2336,-0.2306,-0.2269,-0.2116,-0.2331,-0.2329,-0.2327,0,-0.2533,-0.2565,-0.2586,-0.2613,-0.2629,-0.2653,-0.2653,-0.2676,-0.2666,-0.2671,-0.2636,-0.2618,-0.2547,-0.258,-0.2448,-0.2496,-0.2436,-0.2393,-0.2385,-0.2314,-0.2315,-0.2137,-0.2081,-0.2087,-0.2303,-0.2305,-0.2307,0,-0.2419,-0.2488,-0.2482,-0.2511,-0.2577,-0.257,-0.2596,-0.2618,-0.2607,-0.2597,-0.2578,-0.252,-0.2469,-0.2407,-0.2348,-0.2382,-0.2205,-0.2236,-0.2139,-0.2136,-0.2044,-0.2037,-0.1957,-0.2128,-0.2129,-0.2129,-0.2129,0,-0.2345,-0.2328,-0.2423,-0.2417,-0.2393,-0.2482,-0.245,-0.2476,-0.2492,-0.2454,-0.2503,-0.2447,-0.2425,-0.2338,-0.2299,-0.2165,-0.2157,-0.2111,-0.2081,-0.2067,-0.2064,-0.2017,-0.2048,-0.2123,-0.2124,-0.2125,-0.2126,0,-0.2191,-0.2258,-0.2247,-0.2316,-0.2332,-0.2312,-0.2368,-0.2337,-0.2394,-0.2346,-0.2339,-0.2347,-0.2256,-0.2216,-0.2098,-0.2075,-0.1936,-0.1925,-0.1913,-0.1886,-0.1826,-0.1862,-0.1685,-0.163,-0.1782,-0.178,-0.1778,0,-0.2117,-0.2105,-0.2161,-0.2146,-0.2166,-0.2177,-0.2173,-0.2261,-0.2251,-0.227,-0.2218,-0.2157,-0.21,-0.1944,-0.1896,-0.1793,-0.1809,-0.1698,-0.1766,-0.1788,-0.1806,-0.1818,-0.1786,-0.1666,-0.1663,-0.1661,-0.166,0,-0.1968,-0.1992,-0.1973,-0.1978,-0.197,-0.1986,-0.2001,-0.1992,-0.2079,-0.2056,-0.2017,-0.198,-0.1887,-0.1798,-0.1708,-0.1645,-0.1681,-0.1653,-0.1666,-0.1689,-0.17,-0.1645,-0.1818,-0.1642,-0.1644,-0.1645,-0.1646,-0.1647,-0.1835,-0.1801,-0.1804,-0.1788,-0.1787,-0.1798,-0.1783,-0.1803,-0.1792,-0.1767,-0.1811,-0.1762,-0.1754,-0.1639,-0.1574,-0.1501,-0.1516,-0.1481,-0.1513,-0.1514,-0.1492,-0.1626,-0.1438,-0.1438,-0.1439,-0.1439,-0.144,0,-0.1679,-0.1659,-0.1627,-0.1619,-0.1599,-0.166,-0.1662,-0.1638,-0.1589,-0.1582,-0.1557,-0.1592,-0.1534,-0.153,-0.1484,-0.1411,-0.137,-0.1366,-0.1388,-0.1354,-0.145,-0.1481,-0.1306,-0.1306,-0.1306,-0.1306,-0.1306,-0.1306,-0.1588,-0.1508,-0.1515,-0.146,-0.1465,-0.1448,-0.1446,-0.1387,-0.1373,-0.1302,-0.1329,-0.1393,-0.1444,-0.1567,-0.1489,-0.1406,-0.1361,-0.1301,-0.1291,-0.1417,-0.1431,-0.1445,-0.1481,-0.1309,-0.1309,-0.1156,-0.1155,-0.1154]},{"header":{"parameterUnit":"m.s-1","parameterCategory":2,"la1":30.2991,"la2":30.254,"lo1":-89.0895,"lo2":-89.0444,"dy":0.0017,"dx":0.0017,"nx":28,"ny":28,"refTime":"2023-10-24T03:00:00:Z","depth":"0","parameterNumber":3,"parameterNumberName":"V-component_of_CURRENTS"},"data":[0,0,0,0,0,0,0,0,0,0,0,0,0,0,0,0,0,0,0,0,0,0,0,0,0,0,0,0,0,0,0,0,0,0,0,0,0,0,0,0,0,0,0,0,0,0,0,0,0,0,0,0,0,0,0,0,0,0,0.0394,0.0396,0,0.0525,0.0526,0.0527,0.0601,0.0602,0.0602,0.0603,0.0695,0.0697,0.0698,0,0,0,0,0,0,0,0,0,0,0,0,0,0.0101,0.0106,0.0394,0.0396,0.0398,0.0525,0.0526,0.0528,0.0601,0.0602,0.0602,0.0603,0.0694,0.0696,0.0699,0,0,0,0,0,0,0,0,0,0,0,0,0,0.0225,0.0108,0.0394,0.0454,0.0461,0.0525,0.0526,0.0528,0.06,0.0602,0.0603,0.0604,0.0694,0.0696,0.0699,0.0693,0,0,0.0707,0.0708,0,0,0,0,0,0,0,0,0.0218,0.0235,0.0443,0.045,0.0458,0.0553,0.0457,0.0583,0.06,0.0542,0.0603,0.0604,0.0647,0.0653,0.0668,0.0697,0.0701,0.0707,0.0709,0.071,0.0711,0,0,0,0,0,0,0,0.0209,0.0229,0.044,0.0445,0.0455,0.0439,0.0458,0.0481,0.0581,0.0547,0.0554,0.0577,0.065,0.0665,0.0671,0.0702,0.0707,0.0709,0.0711,0.0712,0.0742,0.0742,0,0,0,0,0,0,0.021,0.0222,0.0436,0.0445,0.0345,0.0444,0.0465,0.0517,0.0582,0.0595,0.0576,0.058,0.066,0.0667,0.0674,0.0675,0.071,0.0712,0.0714,0.0743,0.0742,0.0741,0,0,0,0,0,0,0.0203,0.0229,0.0431,0.0338,0.0364,0.045,0.0506,0.0519,0.0538,0.0606,0.0617,0.0583,0.0661,0.067,0.0689,0.0679,0.0713,0.0716,0.0744,0.0743,0.0742,0.0674,0,0,0,0,0,0,0.0195,0.0226,0.0242,0.034,0.037,0.0457,0.0506,0.0521,0.0553,0.056,0.0615,0.0625,0.0663,0.0685,0.0691,0.0684,0.0718,0.0745,0.0744,0.0742,0.0678,0.0671,0.0666,0,0,0,0,0,0.0184,0.02,0.0242,0.0267,0.0397,0.0457,0.0469,0.0528,0.0552,0.055,0.059,0.0623,0.0681,0.0686,0.0694,0.0687,0.0746,0.0744,0.0742,0.068,0.0672,0.0666,0,0,0,0,0,0,0.0074,0.0213,0.026,0.0318,0.038,0.0471,0.047,0.0519,0.055,0.0551,0.0612,0.0624,0.0642,0.0666,0.0671,0.0691,0.0719,0.0719,0.0669,0.0662,0.0656,0.0645,0.072,0,0,0,0,0,0.0062,0.0112,0.0232,0.0268,0.0298,0.0381,0.0407,0.0456,0.0508,0.0524,0.0569,0.0607,0.0639,0.0651,0.0684,0.0686,0.0727,0.0686,0.068,0.0675,0.0671,0.0725,0.0724,0.0736,0.0736,0.0736,0,0,0.0022,0.0107,0.0132,0.0246,0.0294,0.0332,0.0397,0.0434,0.046,0.0526,0.0548,0.0589,0.0636,0.065,0.0658,0.0668,0.0692,0.0673,0.0668,0.0667,0.0723,0.0723,0.0722,0.0735,0.0735,0.0735,0,0,-0.0043,0.0049,0.0062,0.0123,0.0209,0.0272,0.0282,0.0375,0.0405,0.0439,0.0494,0.0524,0.0571,0.0605,0.0628,0.0603,0.0664,0.0613,0.0569,0.0621,0.0621,0.0621,0.0669,0.0674,0.0603,0.0603,0.0603,0,-0.0099,-0.0035,0.0062,0.0095,0.014,0.0244,0.0261,0.0307,0.039,0.0413,0.0434,0.0519,0.0552,0.0582,0.0572,0.059,0.0631,0.0593,0.0614,0.0615,0.0616,0.0666,0.0672,0.06,0.06,0.06,0.0601,0,-0.0138,-0.0091,-0.0086,0.001,0.0058,0.009,0.0191,0.0225,0.0281,0.034,0.0385,0.0438,0.0493,0.0502,0.0528,0.0552,0.0582,0.0606,0.0633,0.0611,0.0664,0.0672,0.0595,0.0596,0.0597,0.0598,0,0,-0.0235,-0.0132,-0.0127,-0.0095,0.0028,0.0068,0.0107,0.0183,0.0224,0.028,0.0328,0.0365,0.0413,0.044,0.0484,0.0514,0.0552,0.0553,0.0558,0.0601,0.0671,0.0587,0.0589,0.0586,0.0587,0.0588,0.0702,0,-0.0293,-0.0261,-0.0184,-0.0155,-0.0123,-0.001,0.0032,0.0112,0.0187,0.0257,0.0314,0.0376,0.0386,0.0424,0.0451,0.055,0.0571,0.0519,0.0684,0.0689,0.0618,0.0594,0.0598,0.069,0.071,0.0712,0.0713,0,-0.0338,-0.0304,-0.0287,-0.0198,-0.0174,-0.0142,-0.0029,0.0022,0.0139,0.0201,0.0266,0.0342,0.0404,0.0419,0.0541,0.0513,0.0572,0.063,0.0637,0.0588,0.062,0.0716,0.0705,0.082,0.0726,0.0725,0.0724,0,-0.0417,-0.0367,-0.0354,-0.0317,-0.0207,-0.0188,-0.013,-0.0009,0.0062,0.0173,0.0249,0.0331,0.0408,0.0483,0.0586,0.0582,0.0723,0.0744,0.0717,0.0713,0.076,0.0757,0.0879,0.0805,0.0805,0.0805,0.0804,0,-0.0462,-0.0449,-0.0396,-0.0372,-0.035,-0.0256,-0.0194,-0.0118,0.0016,0.0105,0.0211,0.0295,0.043,0.0531,0.0599,0.0675,0.0736,0.0701,0.073,0.0733,0.0726,0.0862,0.0914,0.0809,0.0808,0.0807,0.0807,0,-0.0502,-0.0479,-0.0455,-0.039,-0.0375,-0.0351,-0.0226,-0.0159,-0.004,0.0085,0.0127,0.0301,0.0408,0.0521,0.0667,0.0697,0.0827,0.0782,0.0763,0.0784,0.0819,0.0865,0.0991,0.1037,0.0776,0.0775,0.0773,0,-0.0493,-0.0488,-0.0466,-0.0456,-0.0425,-0.0377,-0.0318,-0.02,-0.011,0.008,0.0143,0.0278,0.0349,0.0517,0.0615,0.0708,0.0795,0.0757,0.0718,0.0804,0.0882,0.0922,0.0956,0.0779,0.0778,0.0777,0.0777,0,-0.0441,-0.0451,-0.0431,-0.0437,-0.0412,-0.0379,-0.0301,-0.0251,-0.0096,-0.0019,0.0091,0.0145,0.0321,0.0428,0.055,0.0605,0.0821,0.0733,0.0865,0.0903,0.0922,0.0986,0.0723,0.0768,0.0769,0.077,0.077,0.0771,-0.0368,-0.0369,-0.0357,-0.0364,-0.0372,-0.0369,-0.0355,-0.029,-0.0224,-0.0115,-0.0024,0.0043,0.0296,0.0448,0.0542,0.0751,0.074,0.0805,0.0862,0.0901,0.0906,0.0582,0.0616,0.0616,0.0616,0.0616,0.0616,0,-0.0229,-0.0248,-0.0259,-0.0288,-0.0314,-0.0335,-0.031,-0.0306,-0.0304,-0.0226,-0.0183,0.0037,0.0249,0.051,0.0815,0.0917,0.0982,0.0976,0.1098,0.1132,0.0902,0.086,0.0898,0.0898,0.0898,0.0898,0.0898,0.0898,-0.013,-0.0113,-0.0153,-0.019,-0.0246,-0.029,-0.0308,-0.0358,-0.0333,-0.0279,-0.0182,-0.0101,0.0284,0.0872,0.1181,0.1189,0.1338,0.1285,0.1364,0.1272,0.1263,0.1254,0.1229,0.1344,0.1345,0.16,0.1603,0.1605]}],[{"header":{"parameterUnit":"m.s-1","parameterCategory":2,"la1":30.2991,"la2":30.254,"lo1":-89.0895,"lo2":-89.0444,"dy":0.0017,"dx":0.0017,"nx":28,"ny":28,"refTime":"2023-10-24T03:00:00:Z","depth":"2","parameterNumber":2,"parameterNumberName":"U-component_of_CURRENTS"},"data":[0,0,0,0,0,0,0,0,0,0,0,0,0,0,0,0,0,0,0,0,0,0,0,0,0,0,0,0,0,0,0,0,0,0,0,0,0,0,0,0,0,0,0,0,0,0,0,0,0,0,0,0,0,0,0,0,0,0,-0.1912,-0.1912,0,-0.1883,-0.1883,-0.1882,-0.1839,-0.1838,-0.1837,-0.1837,-0.174,-0.1738,-0.1736,0,0,0,0,0,0,0,0,0,0,0,0,0,-0.1826,-0.1828,-0.1912,-0.1912,-0.1912,-0.1883,-0.1883,-0.1882,-0.1839,-0.1838,-0.1837,-0.1836,-0.1741,-0.1738,-0.1736,0,0,0,0,0,0,0,0,0,0,0,0,0,-0.1836,-0.1829,-0.1912,-0.1887,-0.1885,-0.1883,-0.1883,-0.1882,-0.1839,-0.1838,-0.1837,-0.1836,-0.1741,-0.1739,-0.1736,-0.1738,0,0,-0.1727,-0.1726,0,0,0,0,0,0,0,0,-0.1835,-0.1839,-0.1891,-0.1889,-0.1886,-0.1864,-0.1817,-0.1831,-0.1839,-0.1855,-0.1837,-0.1835,-0.1777,-0.1771,-0.1767,-0.1733,-0.1729,-0.1727,-0.1725,-0.1724,-0.1723,0,0,0,0,0,0,0,-0.1835,-0.1839,-0.19,-0.1891,-0.1888,-0.1842,-0.1843,-0.1819,-0.182,-0.1854,-0.1851,-0.185,-0.1775,-0.177,-0.1764,-0.1728,-0.1727,-0.1724,-0.1722,-0.1721,-0.1735,-0.1737,0,0,0,0,0,0,-0.1848,-0.184,-0.1901,-0.1899,-0.1859,-0.1845,-0.1846,-0.1872,-0.1822,-0.1814,-0.1851,-0.1848,-0.1776,-0.1768,-0.1761,-0.1807,-0.1724,-0.1721,-0.1719,-0.1733,-0.1736,-0.1738,0,0,0,0,0,0,-0.1847,-0.1855,-0.1902,-0.1867,-0.187,-0.1848,-0.1877,-0.1872,-0.189,-0.182,-0.181,-0.1877,-0.1774,-0.1765,-0.1761,-0.1801,-0.1719,-0.1717,-0.1731,-0.1734,-0.1737,-0.187,0,0,0,0,0,0,-0.1845,-0.1855,-0.1884,-0.187,-0.1873,-0.1942,-0.1878,-0.1872,-0.189,-0.1887,-0.1839,-0.1828,-0.1773,-0.1766,-0.1758,-0.1796,-0.1715,-0.1728,-0.1732,-0.1736,-0.1863,-0.1877,-0.189,0,0,0,0,0,-0.1842,-0.1865,-0.1886,-0.1893,-0.1912,-0.1944,-0.1944,-0.192,-0.1893,-0.1928,-0.1879,-0.1831,-0.1785,-0.1765,-0.1755,-0.1793,-0.1726,-0.1731,-0.1736,-0.1857,-0.1875,-0.1889,0,0,0,0,0,0,-0.184,-0.1863,-0.1885,-0.1917,-0.1958,-0.1938,-0.1944,-0.1946,-0.1937,-0.1916,-0.1854,-0.1841,-0.1835,-0.1811,-0.179,-0.1811,-0.175,-0.1753,-0.1846,-0.1861,-0.1875,-0.1887,-0.1712,0,0,0,0,0,-0.1861,-0.1879,-0.1921,-0.1949,-0.1971,-0.1973,-0.1982,-0.1979,-0.1963,-0.1959,-0.1936,-0.1894,-0.1846,-0.1853,-0.1803,-0.1838,-0.1761,-0.1858,-0.1872,-0.1883,-0.1888,-0.1813,-0.182,-0.1754,-0.1754,-0.1754,0,0,-0.1868,-0.1878,-0.1893,-0.195,-0.1962,-0.2018,-0.1976,-0.1999,-0.203,-0.1947,-0.1976,-0.1923,-0.1856,-0.1865,-0.1867,-0.1859,-0.1861,-0.1889,-0.19,-0.1898,-0.1819,-0.1825,-0.183,-0.1757,-0.1756,-0.1756,0,0,-0.1871,-0.191,-0.1932,-0.1979,-0.2017,-0.204,-0.2067,-0.2093,-0.2089,-0.2111,-0.2042,-0.2044,-0.1995,-0.1981,-0.1952,-0.2025,-0.1905,-0.2004,-0.2116,-0.2044,-0.2048,-0.2051,-0.1951,-0.1944,-0.2046,-0.2047,-0.2047,0,-0.1881,-0.1913,-0.1948,-0.1991,-0.202,-0.2068,-0.2116,-0.2141,-0.2164,-0.2151,-0.2132,-0.2065,-0.2049,-0.2039,-0.208,-0.2058,-0.1967,-0.2058,-0.2059,-0.2061,-0.2061,-0.1958,-0.1948,-0.2054,-0.2053,-0.2052,-0.2051,0,-0.1908,-0.1948,-0.1961,-0.2044,-0.2106,-0.2138,-0.2205,-0.2255,-0.2254,-0.2254,-0.2231,-0.2206,-0.2165,-0.2184,-0.2158,-0.2171,-0.2086,-0.2053,-0.2015,-0.2075,-0.1963,-0.195,-0.2064,-0.2061,-0.2059,-0.2057,0,0,-0.1886,-0.1959,-0.1973,-0.1997,-0.2119,-0.2158,-0.2247,-0.2304,-0.23,-0.2342,-0.2307,-0.233,-0.2303,-0.2274,-0.2255,-0.226,-0.2223,-0.2186,-0.2179,-0.2081,-0.2016,-0.1998,-0.1981,-0.2166,-0.2165,-0.2164,-0.1931,0,-0.1891,-0.1942,-0.2002,-0.2083,-0.2116,-0.2204,-0.2271,-0.2336,-0.2344,-0.2336,-0.2331,-0.2285,-0.2336,-0.23,-0.2321,-0.2211,-0.2196,-0.2287,-0.1978,-0.1969,-0.1941,-0.197,-0.1892,-0.1682,-0.1918,-0.1916,-0.1914,0,-0.1918,-0.1923,-0.1986,-0.2046,-0.2073,-0.2151,-0.2227,-0.2282,-0.2314,-0.2305,-0.2308,-0.2259,-0.2286,-0.229,-0.2197,-0.2232,-0.2149,-0.2089,-0.2077,-0.2006,-0.1929,-0.1662,-0.1648,-0.1891,-0.1893,-0.1895,-0.1896,0,-0.1855,-0.1927,-0.1953,-0.1986,-0.2082,-0.2117,-0.2182,-0.2259,-0.2257,-0.2272,-0.2231,-0.2235,-0.2164,-0.2124,-0.2063,-0.2091,-0.1902,-0.1905,-0.1808,-0.1802,-0.1652,-0.1637,-0.1818,-0.1819,-0.1819,-0.182,-0.182,0,-0.1824,-0.1839,-0.1915,-0.1916,-0.1938,-0.2049,-0.2067,-0.2133,-0.216,-0.2113,-0.219,-0.2115,-0.211,-0.2011,-0.1995,-0.1861,-0.1837,-0.1819,-0.1751,-0.1698,-0.1691,-0.1813,-0.1815,-0.1811,-0.1813,-0.1815,-0.1816,0,-0.1752,-0.1807,-0.1814,-0.1879,-0.1906,-0.1924,-0.1997,-0.1975,-0.2051,-0.198,-0.1974,-0.1962,-0.1874,-0.1863,-0.1735,-0.172,-0.1635,-0.1586,-0.1527,-0.1461,-0.1591,-0.1603,-0.1442,-0.144,-0.1438,-0.1436,-0.1435,0,-0.1714,-0.1713,-0.1763,-0.1753,-0.1773,-0.1811,-0.1815,-0.1913,-0.1883,-0.1866,-0.1788,-0.1715,-0.1654,-0.1518,-0.1506,-0.1452,-0.1517,-0.1304,-0.1403,-0.1607,-0.1556,-0.1572,-0.1586,-0.1226,-0.1223,-0.122,-0.1218,0,-0.1597,-0.163,-0.1629,-0.1621,-0.1619,-0.1602,-0.1612,-0.1583,-0.1641,-0.163,-0.1546,-0.1506,-0.1411,-0.1347,-0.131,-0.1269,-0.1338,-0.1253,-0.1418,-0.1377,-0.1396,-0.135,-0.1371,-0.1196,-0.1199,-0.12,-0.1201,-0.1202,-0.1499,-0.1485,-0.1496,-0.1462,-0.1475,-0.1395,-0.1359,-0.1359,-0.1339,-0.1314,-0.1309,-0.1278,-0.1248,-0.1208,-0.1137,-0.1099,-0.1192,-0.1143,-0.1152,-0.1163,-0.1224,-0.1244,-0.1023,-0.1024,-0.1025,-0.1026,-0.1027,0,-0.1308,-0.1317,-0.1317,-0.1293,-0.1234,-0.1268,-0.1224,-0.1173,-0.1135,-0.1142,-0.1143,-0.1019,-0.1033,-0.1037,-0.0969,-0.0936,-0.0932,-0.088,-0.0899,-0.0921,-0.094,-0.0993,-0.0727,-0.0726,-0.0725,-0.0724,0,0,-0.1207,-0.113,-0.1138,-0.103,-0.1027,-0.0906,-0.0854,-0.0834,-0.0864,-0.0842,-0.0877,-0.1022,-0.1033,-0.0908,-0.0858,-0.0794,-0.0844,-0.0744,-0.0987,-0.1033,-0.1051,-0.1094,-0.12,0,0,0,0,0]},{"header":{"parameterUnit":"m.s-1","parameterCategory":2,"la1":30.2991,"la2":30.254,"lo1":-89.0895,"lo2":-89.0444,"dy":0.0017,"dx":0.0017,"nx":28,"ny":28,"refTime":"2023-10-24T03:00:00:Z","depth":"2","parameterNumber":3,"parameterNumberName":"V-component_of_CURRENTS"},"data":[0,0,0,0,0,0,0,0,0,0,0,0,0,0,0,0,0,0,0,0,0,0,0,0,0,0,0,0,0,0,0,0,0,0,0,0,0,0,0,0,0,0,0,0,0,0,0,0,0,0,0,0,0,0,0,0,0,0,-0.0187,-0.0188,0,-0.014,-0.0139,-0.0137,-0.0133,-0.0135,-0.0137,-0.0139,-0.0038,-0.0034,-0.0029,0,0,0,0,0,0,0,0,0,0,0,0,0,-0.023,-0.0228,-0.0187,-0.0188,-0.0189,-0.0141,-0.0138,-0.0136,-0.0133,-0.0135,-0.0138,-0.014,-0.004,-0.0034,-0.0029,0,0,0,0,0,0,0,0,0,0,0,0,0,-0.0185,-0.0227,-0.0187,-0.0193,-0.0194,-0.0141,-0.0138,-0.0136,-0.0133,-0.0135,-0.0138,-0.0141,-0.0041,-0.0035,-0.0028,0.0072,0,0,-0.0008,-0.0005,0,0,0,0,0,0,0,0,-0.0188,-0.0181,-0.0191,-0.0193,-0.0194,-0.0159,-0.0118,-0.0069,-0.0132,-0.0139,-0.0139,-0.0143,-0.0082,-0.0072,-0.0035,0.0077,0.0081,-0.0007,-0.0003,-0.0,0.0002,0,0,0,0,0,0,0,-0.0191,-0.0184,-0.0153,-0.0192,-0.0194,-0.0184,-0.0179,-0.0107,-0.0082,-0.0139,-0.0143,-0.0161,-0.008,-0.0041,-0.0033,0.0083,-0.0007,-0.0001,0.0003,0.0006,0.0286,0.0289,0,0,0,0,0,0,-0.0226,-0.0186,-0.0155,-0.0153,-0.0216,-0.0182,-0.0176,-0.0155,-0.0084,-0.0081,-0.0159,-0.0162,-0.0052,-0.0041,-0.0029,0.0069,-0.0,0.0006,0.001,0.0283,0.0287,0.0291,0,0,0,0,0,0,-0.0227,-0.0222,-0.0157,-0.0184,-0.0177,-0.018,-0.0155,-0.0153,-0.008,-0.0102,-0.0096,-0.0088,-0.0053,-0.0039,0.0063,0.0073,0.0009,0.0015,0.0279,0.0284,0.0289,0.0282,0,0,0,0,0,0,-0.0227,-0.0221,-0.0202,-0.0185,-0.0177,-0.01,-0.0154,-0.015,-0.0097,-0.0098,-0.0039,-0.0035,-0.0055,0.0053,0.007,0.0081,0.0021,0.0274,0.0281,0.0287,0.0278,0.0286,0.0293,0,0,0,0,0,-0.0228,-0.0219,-0.0199,-0.0197,-0.0154,-0.0098,-0.0088,-0.0094,-0.0091,-0.0037,-0.0005,-0.0035,0.0103,0.0063,0.0081,0.0094,0.0271,0.0279,0.0287,0.0274,0.0284,0.0293,0,0,0,0,0,0,-0.024,-0.0218,-0.0197,-0.0182,-0.0125,-0.0104,-0.0099,-0.0049,0.0027,0.0002,0.0031,0.004,0.0114,0.0145,0.01,0.0201,0.0176,0.0188,0.016,0.017,0.0178,0.0131,0.0026,0,0,0,0,0,-0.0228,-0.0206,-0.0164,-0.0145,-0.0132,-0.0082,-0.0057,-0.0047,-0.0,0.0032,0.0085,0.0125,0.0163,0.0199,0.0234,0.0329,0.0335,0.0349,0.0356,0.0362,0.0342,0.0385,0.0392,0.0316,0.0316,0.0315,0,0,-0.0236,-0.022,-0.021,-0.0145,-0.0124,-0.0081,-0.007,-0.0045,0.0004,0.0031,0.0124,0.016,0.0198,0.0256,0.0295,0.0283,0.0396,0.0372,0.0375,0.0352,0.0393,0.04,0.0406,0.0321,0.032,0.0319,0,0,-0.0262,-0.0217,-0.0213,-0.0163,-0.0133,-0.0083,-0.0052,0.0016,0.0051,0.0153,0.0158,0.0222,0.0322,0.0332,0.0351,0.0451,0.043,0.0469,0.0473,0.0516,0.0521,0.0525,0.0559,0.0566,0.0478,0.0478,0.0478,0,-0.027,-0.0252,-0.0197,-0.018,-0.0161,-0.0068,-0.0046,0.0027,0.0132,0.0161,0.0168,0.03,0.034,0.0397,0.041,0.0459,0.0477,0.0421,0.0519,0.0523,0.0527,0.0561,0.0568,0.0479,0.0479,0.0479,0.0479,0,-0.0291,-0.0267,-0.0269,-0.02,-0.0143,-0.0119,-0.0032,0.0057,0.012,0.0174,0.0258,0.0324,0.039,0.0424,0.044,0.0501,0.0504,0.0511,0.0474,0.0533,0.0567,0.0575,0.048,0.048,0.0479,0.0479,0,0,-0.0334,-0.0292,-0.0289,-0.0272,-0.0165,-0.0125,-0.0034,0.0066,0.0119,0.0218,0.0277,0.0357,0.0389,0.0416,0.0463,0.051,0.0569,0.0521,0.0524,0.0517,0.0657,0.0567,0.0567,0.0586,0.0587,0.0588,0.0673,0,-0.0363,-0.0356,-0.0312,-0.0266,-0.0248,-0.0144,-0.0055,0.0044,0.0136,0.0233,0.029,0.0363,0.0389,0.0421,0.047,0.0547,0.0588,0.0545,0.0633,0.0636,0.0516,0.0572,0.0551,0.0616,0.068,0.0681,0.0682,0,-0.039,-0.0383,-0.0369,-0.0309,-0.0293,-0.0232,-0.0099,-0.0017,0.0127,0.0188,0.0264,0.0328,0.0421,0.0431,0.0559,0.0529,0.0582,0.0636,0.0641,0.0553,0.0559,0.0571,0.0628,0.0696,0.0694,0.0693,0.0693,0,-0.0438,-0.0418,-0.041,-0.0388,-0.0289,-0.0262,-0.019,-0.0043,0.0031,0.0161,0.0225,0.0327,0.039,0.0474,0.0568,0.0577,0.0686,0.072,0.0686,0.0681,0.0675,0.0666,0.0787,0.0787,0.0786,0.0786,0.0786,0,-0.0468,-0.0465,-0.0442,-0.043,-0.0406,-0.0328,-0.0257,-0.0161,-0.0025,0.004,0.0184,0.0237,0.0402,0.0483,0.0563,0.0629,0.0682,0.0679,0.0693,0.0676,0.0666,0.074,0.0733,0.0789,0.0789,0.0788,0.0788,0,-0.0496,-0.0484,-0.048,-0.0435,-0.0424,-0.0403,-0.03,-0.023,-0.0103,-0.0011,0.0029,0.0196,0.0301,0.0443,0.0581,0.0615,0.0696,0.0696,0.0652,0.0656,0.0674,0.0667,0.0707,0.0704,0.0702,0.07,0.0699,0,-0.0501,-0.0504,-0.0494,-0.0488,-0.0472,-0.0436,-0.0382,-0.027,-0.02,-0.0068,-0.0032,0.0098,0.017,0.0349,0.0468,0.0602,0.0633,0.0615,0.0621,0.0654,0.0665,0.0661,0.0658,0.0643,0.0641,0.064,0.0639,0,-0.0505,-0.0505,-0.049,-0.0487,-0.047,-0.046,-0.0406,-0.0376,-0.0261,-0.0179,-0.0124,-0.0073,0.0103,0.0238,0.04,0.0464,0.0598,0.0583,0.066,0.0631,0.0591,0.0601,0.0601,0.0625,0.0627,0.0628,0.0628,0.0629,-0.0492,-0.0487,-0.0468,-0.0479,-0.0455,-0.0483,-0.049,-0.0433,-0.0379,-0.0287,-0.0255,-0.0157,0.0004,0.0234,0.035,0.0478,0.0494,0.0533,0.054,0.0549,0.049,0.0444,0.0442,0.0442,0.0442,0.0443,0.0443,0,-0.0546,-0.0503,-0.046,-0.0472,-0.0494,-0.0494,-0.0479,-0.0483,-0.0467,-0.0378,-0.0317,-0.0184,-0.0014,0.0172,0.0356,0.0441,0.0486,0.0453,0.0519,0.0529,0.0539,0.0483,0.0433,0.0433,0.0434,0.0434,0,0,-0.056,-0.0559,-0.0539,-0.0551,-0.0547,-0.0599,-0.0635,-0.0598,-0.0525,-0.0452,-0.036,-0.0229,-0.0026,0.0107,0.0253,0.0352,0.0412,0.0352,0.0344,0.0413,0.0423,0.0562,0.0482,0,0,0,0,0]}],[{"header":{"parameterUnit":"m.s-1","parameterCategory":2,"la1":30.2991,"la2":30.254,"lo1":-89.0895,"lo2":-89.0444,"dy":0.0017,"dx":0.0017,"nx":28,"ny":28,"refTime":"2023-10-24T03:00:00:Z","depth":"4","parameterNumber":2,"parameterNumberName":"U-component_of_CURRENTS"},"data":[0,0,0,0,0,0,0,0,0,0,0,0,0,0,0,0,0,0,0,0,0,0,0,0,0,0,0,0,0,0,0,0,0,0,0,0,0,0,0,0,0,0,0,0,0,0,0,0,0,0,0,0,0,0,0,0,0,0,-0.0522,-0.0522,0,-0.0564,-0.0564,-0.0565,-0.0606,-0.0607,-0.0607,-0.0607,-0.0684,-0.0686,-0.0688,0,0,0,0,0,0,0,0,0,0,0,0,0,-0.0612,-0.0609,-0.0522,-0.0522,-0.0522,-0.0564,-0.0564,-0.0565,-0.0606,-0.0607,-0.0607,-0.0607,-0.0684,-0.0686,-0.0688,0,0,0,0,0,0,0,0,0,0,0,0,0,-0.0606,-0.0608,-0.0522,-0.0547,-0.0549,-0.0563,-0.0564,-0.0565,-0.0606,-0.0607,-0.0607,-0.0608,-0.0683,-0.0686,-0.0688,-0.0692,0,0,-0.0696,-0.0697,0,0,0,0,0,0,0,0,-0.0606,-0.0603,-0.0543,-0.0545,-0.0548,-0.0579,-0.0624,-0.0609,-0.0606,-0.0586,-0.0607,-0.0608,-0.0651,-0.0656,-0.0665,-0.0696,-0.0699,-0.0696,-0.0698,-0.0699,-0.0699,0,0,0,0,0,0,0,-0.0606,-0.0602,-0.054,-0.0543,-0.0546,-0.0602,-0.0601,-0.0622,-0.0617,-0.0588,-0.0591,-0.0592,-0.0653,-0.0662,-0.0667,-0.07,-0.0696,-0.0698,-0.07,-0.0701,-0.0783,-0.0784,0,0,0,0,0,0,-0.0589,-0.0601,-0.0539,-0.0541,-0.0577,-0.0599,-0.0598,-0.057,-0.0616,-0.0623,-0.0592,-0.0594,-0.0657,-0.0664,-0.067,-0.0724,-0.0699,-0.0701,-0.0703,-0.0783,-0.0784,-0.0784,0,0,0,0,0,0,-0.0591,-0.0582,-0.0537,-0.0574,-0.0571,-0.0596,-0.0565,-0.057,-0.0593,-0.0618,-0.0626,-0.0611,-0.0658,-0.0666,-0.0701,-0.0725,-0.0702,-0.0705,-0.0782,-0.0783,-0.0784,-0.0802,0,0,0,0,0,0,-0.0592,-0.0582,-0.0567,-0.0571,-0.0568,-0.0554,-0.0564,-0.057,-0.0592,-0.0596,-0.0636,-0.0643,-0.0659,-0.0697,-0.0704,-0.0728,-0.0707,-0.0781,-0.0782,-0.0784,-0.0801,-0.0804,-0.0806,0,0,0,0,0,-0.0595,-0.0581,-0.0565,-0.0559,-0.0542,-0.0554,-0.0559,-0.0581,-0.0592,-0.0604,-0.0632,-0.0643,-0.071,-0.07,-0.0707,-0.0733,-0.078,-0.0782,-0.0783,-0.0799,-0.0803,-0.0806,0,0,0,0,0,0,-0.0625,-0.0583,-0.0566,-0.0541,-0.0546,-0.0561,-0.0577,-0.0587,-0.0617,-0.0624,-0.065,-0.0659,-0.0701,-0.071,-0.0698,-0.076,-0.0748,-0.0751,-0.0757,-0.0761,-0.0763,-0.076,-0.0709,0,0,0,0,0,-0.0616,-0.0594,-0.0568,-0.0558,-0.0551,-0.0563,-0.0574,-0.0583,-0.0604,-0.0619,-0.0649,-0.0679,-0.071,-0.0729,-0.0755,-0.0786,-0.0781,-0.0808,-0.081,-0.0813,-0.0814,-0.0831,-0.0836,-0.0789,-0.0789,-0.0789,0,0,-0.0626,-0.0605,-0.0592,-0.0564,-0.0568,-0.0568,-0.0572,-0.0587,-0.0604,-0.0622,-0.0667,-0.0692,-0.072,-0.0758,-0.0778,-0.0772,-0.0818,-0.0814,-0.0816,-0.0817,-0.0833,-0.0838,-0.0842,-0.079,-0.079,-0.079,0,0,-0.0664,-0.0611,-0.0612,-0.0599,-0.0594,-0.059,-0.0593,-0.0603,-0.0622,-0.0657,-0.0677,-0.0716,-0.0761,-0.0789,-0.0807,-0.0839,-0.0832,-0.0846,-0.0861,-0.0877,-0.0881,-0.0885,-0.0861,-0.0863,-0.0848,-0.0848,-0.0848,0,-0.0685,-0.0657,-0.0624,-0.0622,-0.0618,-0.0598,-0.0608,-0.0615,-0.0646,-0.0657,-0.0675,-0.0749,-0.078,-0.0824,-0.084,-0.0848,-0.0837,-0.0847,-0.0881,-0.0884,-0.0887,-0.0863,-0.0864,-0.0849,-0.0849,-0.0849,-0.0849,0,-0.0703,-0.0689,-0.0692,-0.0664,-0.0666,-0.0663,-0.0651,-0.0651,-0.0669,-0.0684,-0.0735,-0.0782,-0.0824,-0.0845,-0.0857,-0.0896,-0.0872,-0.0881,-0.0871,-0.0893,-0.0866,-0.0866,-0.0851,-0.085,-0.085,-0.085,0,0,-0.0708,-0.0706,-0.0698,-0.0694,-0.0676,-0.067,-0.068,-0.0677,-0.0676,-0.0721,-0.0748,-0.0822,-0.0842,-0.0864,-0.089,-0.0914,-0.0929,-0.0908,-0.0908,-0.0881,-0.0931,-0.0897,-0.0894,-0.0942,-0.0942,-0.0943,-0.0895,0,-0.0728,-0.0739,-0.0733,-0.0736,-0.0731,-0.0701,-0.0715,-0.071,-0.0718,-0.0729,-0.0775,-0.0812,-0.085,-0.0872,-0.0908,-0.0927,-0.0936,-0.0939,-0.0917,-0.0916,-0.0881,-0.0896,-0.0946,-0.0895,-0.0895,-0.0896,-0.0896,0,-0.0716,-0.0729,-0.0753,-0.0753,-0.0746,-0.0747,-0.0719,-0.0731,-0.0729,-0.0744,-0.0781,-0.0801,-0.0851,-0.0876,-0.0927,-0.0924,-0.0929,-0.094,-0.0938,-0.0903,-0.0884,-0.0875,-0.0897,-0.0897,-0.0897,-0.0897,-0.0897,0,-0.0702,-0.0719,-0.0742,-0.0734,-0.0744,-0.0743,-0.0737,-0.0735,-0.0726,-0.0742,-0.0736,-0.0801,-0.0825,-0.0864,-0.0895,-0.0907,-0.0926,-0.0942,-0.0908,-0.0903,-0.0939,-0.0936,-0.0962,-0.0962,-0.0962,-0.0962,-0.0963,0,-0.0686,-0.0692,-0.073,-0.0724,-0.0718,-0.0744,-0.0724,-0.0718,-0.0724,-0.0718,-0.0748,-0.0759,-0.0825,-0.0839,-0.0875,-0.089,-0.091,-0.0908,-0.0898,-0.0944,-0.0942,-0.0938,-0.0936,-0.0961,-0.0961,-0.0961,-0.0962,0,-0.0655,-0.069,-0.0696,-0.0715,-0.0711,-0.0701,-0.0675,-0.0651,-0.068,-0.067,-0.0671,-0.0709,-0.0751,-0.0787,-0.0837,-0.085,-0.0873,-0.0864,-0.0877,-0.0869,-0.0837,-0.0837,-0.0825,-0.0823,-0.0822,-0.0821,-0.082,0,-0.0644,-0.065,-0.0658,-0.0639,-0.0643,-0.0623,-0.0597,-0.0616,-0.0605,-0.0645,-0.0643,-0.067,-0.0701,-0.0731,-0.079,-0.0822,-0.0833,-0.081,-0.0865,-0.0836,-0.0828,-0.0829,-0.083,-0.0818,-0.0818,-0.0818,-0.0817,0,-0.0595,-0.0601,-0.0587,-0.0565,-0.0539,-0.0511,-0.0497,-0.049,-0.0536,-0.0548,-0.0603,-0.0632,-0.0668,-0.0725,-0.0733,-0.077,-0.0817,-0.0798,-0.0802,-0.0853,-0.0828,-0.0821,-0.0824,-0.0813,-0.0814,-0.0814,-0.0815,0,-0.0527,-0.0501,-0.0485,-0.0458,-0.043,-0.0429,-0.0428,-0.0441,-0.045,-0.0533,-0.0551,-0.0618,-0.0665,-0.0695,-0.0719,-0.0737,-0.0756,-0.075,-0.0756,-0.0761,-0.077,-0.0731,-0.0678,0,0,0,0,0,-0.0456,-0.0414,-0.0374,-0.0351,-0.0332,-0.034,-0.0368,-0.0389,-0.045,-0.0478,-0.0524,-0.057,-0.0628,-0.0659,-0.0673,-0.0695,-0.0747,-0.0707,-0.074,-0.0791,-0.0795,-0.0816,0,0,0,0,0,0,-0.0386,-0.0349,-0.0346,-0.0278,-0.0255,-0.0246,-0.0283,-0.0336,-0.0371,-0.0442,-0.048,-0.0526,-0.0587,-0.0605,-0.0652,-0.0662,-0.0675,-0.0746,-0.0745,-0.0788,-0.0792,-0.0796,-0.0819,0,0,0,0,0]},{"header":{"parameterUnit":"m.s-1","parameterCategory":2,"la1":30.2991,"la2":30.254,"lo1":-89.0895,"lo2":-89.0444,"dy":0.0017,"dx":0.0017,"nx":28,"ny":28,"refTime":"2023-10-24T03:00:00:Z","depth":"4","parameterNumber":3,"parameterNumberName":"V-component_of_CURRENTS"},"data":[0,0,0,0,0,0,0,0,0,0,0,0,0,0,0,0,0,0,0,0,0,0,0,0,0,0,0,0,0,0,0,0,0,0,0,0,0,0,0,0,0,0,0,0,0,0,0,0,0,0,0,0,0,0,0,0,0,0,-0.0549,-0.0549,0,-0.0536,-0.0537,-0.0537,-0.0537,-0.0537,-0.0537,-0.0537,-0.0508,-0.0508,-0.0507,0,0,0,0,0,0,0,0,0,0,0,0,0,-0.0469,-0.0472,-0.0549,-0.0549,-0.0548,-0.0536,-0.0537,-0.0537,-0.0537,-0.0537,-0.0537,-0.0537,-0.0509,-0.0508,-0.0507,0,0,0,0,0,0,0,0,0,0,0,0,0,-0.0488,-0.0472,-0.0549,-0.0545,-0.0544,-0.0536,-0.0537,-0.0537,-0.0537,-0.0537,-0.0537,-0.0537,-0.0509,-0.0508,-0.0507,-0.0505,0,0,-0.0504,-0.0504,0,0,0,0,0,0,0,0,-0.0488,-0.0492,-0.0546,-0.0545,-0.0544,-0.0535,-0.0498,-0.0524,-0.0537,-0.0543,-0.0537,-0.0537,-0.0514,-0.0512,-0.0515,-0.0503,-0.0502,-0.0504,-0.0503,-0.0503,-0.0503,0,0,0,0,0,0,0,-0.0486,-0.0492,-0.0548,-0.0545,-0.0544,-0.0507,-0.0511,-0.0503,-0.0532,-0.0543,-0.0542,-0.0535,-0.0514,-0.0516,-0.0515,-0.0502,-0.0504,-0.0503,-0.0502,-0.0502,-0.0502,-0.0502,0,0,0,0,0,0,-0.0488,-0.0492,-0.0548,-0.0547,-0.0511,-0.0509,-0.0513,-0.0541,-0.0532,-0.053,-0.0535,-0.0535,-0.0518,-0.0516,-0.0514,-0.0527,-0.0503,-0.0502,-0.0501,-0.0501,-0.0502,-0.0503,0,0,0,0,0,0,-0.0487,-0.0494,-0.0548,-0.0513,-0.0517,-0.0511,-0.0542,-0.0541,-0.0549,-0.0526,-0.0525,-0.0544,-0.0518,-0.0515,-0.0511,-0.0525,-0.0502,-0.0501,-0.0501,-0.0501,-0.0502,-0.0542,0,0,0,0,0,0,-0.0485,-0.0495,-0.0514,-0.0515,-0.0519,-0.0553,-0.0541,-0.0541,-0.0543,-0.0543,-0.0533,-0.053,-0.0518,-0.0513,-0.051,-0.0523,-0.05,-0.05,-0.0501,-0.0502,-0.054,-0.0544,-0.0548,0,0,0,0,0,-0.0483,-0.05,-0.0517,-0.0522,-0.0549,-0.0553,-0.0553,-0.0547,-0.0544,-0.0553,-0.0543,-0.0531,-0.0518,-0.0513,-0.0509,-0.0522,-0.0499,-0.0501,-0.0502,-0.0538,-0.0544,-0.0548,0,0,0,0,0,0,-0.0464,-0.0501,-0.052,-0.0547,-0.0557,-0.0552,-0.0552,-0.0553,-0.0554,-0.0553,-0.0535,-0.0532,-0.0537,-0.0523,-0.0517,-0.0526,-0.0508,-0.0509,-0.0537,-0.0541,-0.0545,-0.055,-0.0499,0,0,0,0,0,-0.0475,-0.05,-0.0527,-0.0542,-0.0557,-0.0561,-0.056,-0.0563,-0.0559,-0.056,-0.0554,-0.0545,-0.054,-0.0535,-0.053,-0.053,-0.051,-0.0537,-0.0541,-0.0545,-0.0547,-0.0543,-0.0547,-0.0507,-0.0507,-0.0507,0,0,-0.0467,-0.0487,-0.0501,-0.0539,-0.0549,-0.057,-0.0562,-0.0568,-0.0579,-0.0556,-0.0568,-0.0561,-0.0544,-0.0549,-0.055,-0.0537,-0.0541,-0.0546,-0.0549,-0.055,-0.0545,-0.0549,-0.0552,-0.0508,-0.0507,-0.0507,0,0,-0.0449,-0.0494,-0.0512,-0.0532,-0.0553,-0.0567,-0.0575,-0.0591,-0.0598,-0.0607,-0.0595,-0.06,-0.0588,-0.0585,-0.0578,-0.06,-0.0566,-0.0594,-0.0613,-0.0609,-0.0612,-0.0615,-0.0574,-0.0573,-0.0591,-0.0591,-0.0591,0,-0.0432,-0.0478,-0.051,-0.0532,-0.0548,-0.0572,-0.0595,-0.0607,-0.0614,-0.0618,-0.0617,-0.0614,-0.0609,-0.0608,-0.0618,-0.0611,-0.0584,-0.0596,-0.0614,-0.0617,-0.0619,-0.0576,-0.0574,-0.0593,-0.0593,-0.0593,-0.0593,0,-0.0439,-0.0475,-0.0484,-0.0537,-0.0559,-0.0579,-0.0613,-0.0637,-0.0652,-0.0653,-0.0665,-0.0661,-0.0658,-0.0659,-0.0644,-0.0654,-0.0621,-0.0624,-0.0603,-0.0625,-0.0579,-0.0576,-0.0596,-0.0596,-0.0595,-0.0594,0,0,-0.041,-0.0477,-0.0484,-0.0514,-0.057,-0.0588,-0.0625,-0.0661,-0.068,-0.069,-0.0702,-0.0707,-0.0702,-0.0695,-0.0683,-0.0681,-0.0673,-0.0656,-0.0655,-0.0615,-0.0629,-0.0521,-0.0507,-0.0674,-0.0675,-0.0675,-0.0583,0,-0.041,-0.0454,-0.0489,-0.0534,-0.0573,-0.0616,-0.0645,-0.0674,-0.0702,-0.072,-0.0718,-0.0723,-0.0714,-0.0715,-0.0714,-0.0689,-0.0671,-0.0696,-0.0614,-0.0611,-0.0513,-0.0503,-0.0676,-0.0581,-0.058,-0.058,-0.0579,0,-0.0422,-0.0455,-0.05,-0.0558,-0.0579,-0.0604,-0.0675,-0.0697,-0.0728,-0.0747,-0.0757,-0.0747,-0.0744,-0.0741,-0.0702,-0.0713,-0.0674,-0.065,-0.0646,-0.0531,-0.0499,-0.0559,-0.0574,-0.0574,-0.0575,-0.0575,-0.0576,0,-0.041,-0.0467,-0.0505,-0.0527,-0.0593,-0.0619,-0.0653,-0.0701,-0.0724,-0.076,-0.0769,-0.0768,-0.0757,-0.0732,-0.0669,-0.069,-0.0606,-0.0633,-0.0491,-0.0481,-0.059,-0.0589,-0.0601,-0.0601,-0.0601,-0.0602,-0.0602,0,-0.0413,-0.0446,-0.0503,-0.0526,-0.0576,-0.0614,-0.0664,-0.0704,-0.074,-0.0749,-0.0769,-0.076,-0.0755,-0.0699,-0.0661,-0.0542,-0.0595,-0.0481,-0.0453,-0.0605,-0.0607,-0.0586,-0.0586,-0.0598,-0.0599,-0.06,-0.06,0,-0.041,-0.044,-0.0486,-0.0549,-0.0574,-0.0609,-0.0675,-0.0706,-0.0736,-0.0751,-0.0754,-0.0746,-0.0669,-0.062,-0.0559,-0.0506,-0.0426,-0.0367,-0.0491,-0.0473,-0.0309,-0.0312,-0.0223,-0.0218,-0.0214,-0.0211,-0.0209,0,-0.0423,-0.0446,-0.0504,-0.0533,-0.0566,-0.0624,-0.0664,-0.0712,-0.0732,-0.0724,-0.0712,-0.0644,-0.0621,-0.0442,-0.0409,-0.0296,-0.0283,-0.0236,-0.0318,-0.029,-0.0272,-0.0281,-0.0288,-0.0202,-0.0202,-0.02,-0.0199,0,-0.0461,-0.0468,-0.0507,-0.0548,-0.0592,-0.064,-0.0683,-0.0687,-0.0711,-0.0733,-0.0653,-0.0571,-0.0461,-0.0383,-0.0269,-0.0205,-0.0277,-0.0197,-0.0206,-0.0283,-0.0264,-0.0252,-0.0264,-0.0186,-0.0188,-0.0189,-0.019,0,-0.05,-0.052,-0.0548,-0.058,-0.0625,-0.0635,-0.0658,-0.0654,-0.0664,-0.0637,-0.0599,-0.051,-0.0477,-0.0328,-0.0233,-0.0142,-0.0148,-0.0149,-0.0161,-0.0175,-0.0192,-0.0164,-0.0018,0,0,0,0,0,-0.0547,-0.0553,-0.0583,-0.0612,-0.0639,-0.0655,-0.0668,-0.0676,-0.0675,-0.0607,-0.0602,-0.0494,-0.0335,-0.0285,-0.0172,-0.018,-0.0142,-0.0045,-0.0152,-0.0112,-0.0128,-0.0147,0,0,0,0,0,0,-0.0582,-0.0607,-0.059,-0.0622,-0.0639,-0.0669,-0.0667,-0.0657,-0.0612,-0.0594,-0.0513,-0.0473,-0.033,-0.0411,-0.018,-0.0152,-0.0202,0.0016,0.0019,-0.0104,-0.0118,-0.013,-0.0155,0,0,0,0,0]}]]